FW0170 Weather Reports


time (UTC)temp
F
wind
direction
speed
knots
gust
knots
rain 1hr
in
rain 24hr
in
rain mn
in
humidity
%
barometer
mb
20260508142505 57 80 0.0 1.7 0.00 0.08 0.08 75 1017.3
20260508142005 56 292 0.0 0.0 0.00 0.08 0.08 75 1017.3
20260508141006 56 102 0.0 0.0 0.00 0.08 0.08 76 1016.9
20260508135506 55 115 0.0 0.0 0.01 0.08 0.08 80 1017.3
20260508135005 55 3 0.0 0.0 0.04 0.08 0.08 82 1017.6
20260508134505 54 331 0.0 1.7 0.06 0.08 0.08 83 1017.3
20260508134005 54 106 0.0 1.7 0.06 0.08 0.08 83 1017.3
20260508133506 54 322 0.0 0.0 0.07 0.08 0.08 83 1017.6
20260508133006 53 295 0.0 0.0 0.07 0.08 0.08 83 1017.3
20260508132505 53 119 0.0 0.0 0.07 0.08 0.08 83 1017.3
20260508132005 52 87 0.0 0.0 0.08 0.08 0.08 84 1017.3
20260508131505 52 111 0.0 0.0 0.08 0.08 0.08 84 1017.3
20260508131005 52 137 0.0 0.0 0.08 0.08 0.08 84 1017.4
20260508130505 52 135 0.0 1.7 0.08 0.08 0.08 82 1017.7
20260508130005 52 139 0.0 1.7 0.08 0.08 0.08 80 1017.9
20260508125506 52 238 0.9 4.3 0.07 0.07 0.07 79 1017.9
20260508125006 52 219 1.7 4.3 0.04 0.04 0.04 77 1017.9
20260508124505 53 241 1.7 4.3 0.02 0.02 0.02 77 1017.9
20260508123505 54 211 2.6 4.3 0.01 0.01 0.01 78 1017.6
20260508123005 54 174 2.6 4.3 0.01 0.01 0.01 78 1017.6
20260508122505 55 337 0.0 1.7 0.01 0.01 0.01 79 1017.9
20260508122005 55 5 0.0 1.7 0.00 0.00 0.00 81 1017.6
20260508121506 55 63 0.9 1.7 0.00 0.00 0.00 79 1017.6
20260508121005 55 357 0.0 1.7 0.00 0.00 0.00 77 1017.6
20260508120506 55 350 0.0 0.0 0.00 0.00 0.00 77 1016.9
20260508115505 56 136 0.0 4.3 0.00 0.00 0.00 76 1016.9
20260508115005 56 101 1.7 4.3 0.00 0.00 0.00 76 1017.3
20260508114505 56 54 0.0 4.3 0.00 0.00 0.00 76 1017.3
20260508114005 56 127 1.7 4.3 0.00 0.00 0.00 76 1017.3
20260508113505 56 132 1.7 4.3 0.00 0.00 0.00 76 1016.9
20260508113006 57 89 0.9 1.7 0.00 0.00 0.00 75 1016.9
20260508112505 58 117 0.9 1.7 0.00 0.00 0.00 76 1017.3
20260508112006 59 152 0.9 1.7 0.00 0.00 0.00 75 1017.3
20260508111505 60 34 0.9 4.3 0.00 0.00 0.00 75 1016.9
20260508111005 61 111 1.7 4.3 0.00 0.00 0.00 74 1016.9
20260508110505 62 127 1.7 4.3 0.00 0.00 0.00 71 1016.9
20260508105505 61 95 0.9 1.7 0.00 0.00 0.00 63 1016.9
20260508104505 60 328 0.0 1.7 0.00 0.00 0.00 61 1016.9
20260508104006 61 151 0.9 1.7 0.00 0.00 0.00 70 1016.9
20260508103505 61 193 0.0 1.7 0.00 0.00 0.00 73 1016.9
20260508103005 61 104 0.0 0.0 0.00 0.00 0.00 72 1017.3
20260508102505 62 147 0.0 0.0 0.00 0.00 0.00 69 1017.0
20260508102005 62 161 0.9 1.7 0.00 0.00 0.00 61 1016.9
20260508101505 62 96 0.9 1.7 0.00 0.00 0.00 60 1016.9
20260508100505 62 241 1.7 7.0 0.00 0.00 0.00 58 1016.9
20260508100005 62 191 1.7 7.0 0.00 0.00 0.00 58 1016.9
20260508095505 62 221 2.6 7.0 0.00 0.00 0.00 58 1016.9
20260508095006 62 195 1.7 7.0 0.00 0.00 0.00 58 1016.9
20260508094505 62 212 0.9 4.3 0.00 0.00 0.00 58 1016.9
20260508094005 62 202 0.9 4.3 0.00 0.00 0.00 59 1016.9
20260508093505 62 214 0.0 1.7 0.00 0.00 0.00 60 1016.9
20260508093005 62 244 0.9 4.3 0.00 0.00 0.00 59 1016.9
20260508092005 61 214 0.9 1.7 0.00 0.00 0.00 60 1016.9
20260508091506 60 240 0.0 1.7 0.00 0.00 0.00 61 1016.9
20260508091005 60 63 0.0 1.7 0.00 0.00 0.00 62 1016.9
20260508090505 60 227 0.0 4.3 0.00 0.00 0.00 63 1016.9
20260508090005 59 233 1.7 4.3 0.00 0.00 0.00 63 1016.9
20260508085505 59 213 2.6 4.3 0.00 0.00 0.00 62 1016.9
20260508085005 59 221 0.9 4.3 0.00 0.00 0.00 64 1016.9
20260508084005 59 171 0.9 4.3 0.00 0.00 0.00 63 1016.9
20260508083505 59 215 0.9 7.0 0.00 0.00 0.00 64 1016.6
20260508083005 58 214 4.3 7.0 0.00 0.00 0.00 64 1016.9
20260508082505 58 177 0.9 4.3 0.00 0.00 0.00 65 1016.9
20260508082005 58 239 0.9 1.7 0.00 0.00 0.00 64 1016.9
20260508081505 57 249 0.9 1.7 0.00 0.00 0.00 66 1016.9
20260508081005 57 216 0.0 4.3 0.00 0.00 0.00 66 1016.6
20260508080505 57 235 0.9 4.3 0.00 0.00 0.00 66 1016.9
20260508080005 56 214 1.7 7.0 0.00 0.00 0.00 67 1016.6
20260508074504 54 196 0.0 1.7 0.00 0.00 0.00 69 1016.6
20260508074005 54 181 0.0 4.3 0.00 0.00 0.00 70 1016.9
20260508073505 53 211 2.6 4.3 0.00 0.00 0.00 71 1016.6
20260508072505 52 213 0.0 1.7 0.00 0.00 0.00 74 1016.6
20260508072005 51 337 2.6 4.3 0.00 0.00 0.00 76 1016.3
20260508071005 51 239 0.0 1.7 0.00 0.00 0.00 78 1016.3
20260508070505 51 200 1.7 4.3 0.00 0.00 0.00 79 1016.3
20260508070005 52 198 1.7 4.3 0.00 0.00 0.00 78 1016.3
20260508065507 52 216 0.9 4.3 0.00 0.00 0.00 78 1016.2
20260508065005 52 269 1.7 4.3 0.00 0.00 0.00 77 1015.9
20260508064505 52 276 1.7 4.3 0.00 0.00 0.00 77 1015.9
20260508064005 52 197 1.7 4.3 0.00 0.00 0.00 76 1015.9
20260508063505 51 219 2.6 8.7 0.00 0.00 0.00 76 1015.9
20260508063005 51 213 6.1 8.7 0.00 0.00 0.00 77 1015.6
20260508062505 50 203 5.2 8.7 0.00 0.00 0.00 78 1015.9
20260508062005 49 219 2.6 4.3 0.00 0.00 0.00 79 1015.6
20260508061505 49 239 1.7 4.3 0.00 0.00 0.00 80 1015.6
20260508060505 48 243 0.9 4.3 0.00 0.00 0.00 83 1015.6
20260508055506 48 216 2.6 4.3 0.00 0.00 0.00 83 1015.2
20260508055006 48 214 0.9 4.3 0.00 0.00 0.00 83 1015.2
20260508054005 48 237 1.7 4.3 0.00 0.00 0.00 84 1015.6
20260508053505 48 267 0.9 4.3 0.00 0.00 0.00 84 1015.2
20260508053005 48 214 2.6 4.3 0.00 0.00 0.00 84 1015.2
20260508052506 48 228 0.9 7.0 0.00 0.00 0.00 84 1015.2
20260508052005 48 231 4.3 7.0 0.00 0.00 0.00 83 1015.2
20260508051505 48 207 2.6 8.7 0.00 0.00 0.00 83 1014.9
20260508051006 48 216 5.2 8.7 0.00 0.00 0.00 83 1015.2
20260508050505 48 281 1.7 4.3 0.00 0.00 0.00 83 1014.9
20260508050005 48 192 2.6 8.7 0.00 0.00 0.00 83 1015.2
20260508045505 48 201 6.1 8.7 0.00 0.00 0.00 82 1015.2
20260508045005 49 288 2.6 4.3 0.00 0.00 0.00 82 1014.9
20260508044505 48 196 2.6 11.3 0.00 0.00 0.00 82 1014.9
20260508044006 48 204 2.6 11.3 0.00 0.00 0.00 82 1015.2
20260508043505 48 246 1.7 7.0 0.00 0.00 0.00 82 1015.2
20260508043005 48 219 2.6 7.0 0.00 0.00 0.00 82 1015.2
20260508042505 48 214 4.3 7.0 0.00 0.00 0.00 82 1014.9
20260508042006 48 258 4.3 8.7 0.00 0.00 0.00 82 1014.9
20260508041505 48 265 1.7 8.7 0.00 0.00 0.00 82 1014.9
20260508041005 48 196 2.6 7.0 0.00 0.00 0.00 82 1014.9
20260508040005 48 250 2.6 7.0 0.00 0.00 0.00 82 1014.6
20260508035504 48 178 2.6 4.3 0.00 0.00 0.00 82 1014.6
20260508035005 48 134 2.6 7.0 0.00 0.00 0.00 82 1014.6
20260508034506 48 200 4.3 7.0 0.00 0.00 0.00 82 1014.6
20260508032505 49 209 3.5 8.7 0.00 0.00 0.00 82 1014.9
20260508031005 49 210 4.3 7.0 0.00 0.00 0.00 82 1014.6
20260508030505 49 241 2.6 7.0 0.00 0.00 0.00 82 1014.9
20260508030005 49 300 1.7 7.0 0.00 0.00 0.00 82 1014.9
20260508025505 49 198 2.6 17.4 0.00 0.00 0.00 82 1014.6
20260508025005 49 198 6.1 17.4 0.00 0.00 0.00 82 1014.6
20260508024005 49 236 2.6 7.0 0.00 0.00 0.00 82 1014.9
20260508023005 49 235 0.9 7.0 0.00 0.00 0.00 81 1014.9
20260508022505 49 195 4.3 7.0 0.00 0.00 0.00 81 1014.9
20260508022005 49 211 5.2 7.0 0.00 0.00 0.00 81 1014.9
20260508021505 50 247 2.6 7.0 0.00 0.00 0.00 81 1014.6
20260508021006 50 263 5.2 7.0 0.00 0.00 0.00 81 1014.6
20260508020505 50 201 2.6 11.3 0.00 0.00 0.00 80 1014.6
20260508020005 50 230 6.1 11.3 0.00 0.00 0.00 80 1014.6
20260508015005 50 203 4.3 8.7 0.00 0.00 0.00 79 1014.6
20260508014505 50 214 4.3 8.7 0.00 0.00 0.00 79 1014.9
20260508014006 50 169 4.3 8.7 0.00 0.00 0.00 78 1014.9
20260508013505 51 244 4.3 8.7 0.00 0.00 0.00 78 1014.9
20260508012504 51 189 2.6 7.0 0.00 0.00 0.00 77 1014.9
20260508011505 51 182 4.3 7.0 0.00 0.00 0.00 77 1014.9
20260508010506 51 214 3.5 8.7 0.00 0.00 0.00 77 1015.1
20260508010005 51 213 1.7 7.0 0.00 0.00 0.00 77 1014.9
20260508005005 51 215 2.6 7.0 0.00 0.00 0.00 77 1014.9
20260508004505 51 235 2.6 7.0 0.00 0.00 0.00 77 1014.9
20260508004005 51 270 1.7 4.3 0.00 0.00 0.00 77 1014.9
20260508003005 51 167 4.3 8.7 0.00 0.00 0.00 77 1014.9
20260508002504 51 200 0.9 4.3 0.00 0.00 0.00 76 1015.2
20260508002005 51 184 2.6 4.3 0.00 0.00 0.00 76 1014.9
20260508001505 51 351 0.9 4.3 0.00 0.00 0.00 76 1014.9
20260508000506 51 190 1.7 8.7 0.00 0.00 0.00 76 1014.9
20260508000005 51 226 5.2 8.7 0.00 0.00 0.00 76 1014.9
20260507235005 51 217 0.9 4.3 0.00 0.00 0.00 75 1014.9
20260507234505 51 197 1.7 7.0 0.00 0.00 0.00 75 1014.6
20260507233505 52 245 2.6 7.0 0.00 0.00 0.00 75 1014.9
20260507233005 52 193 2.6 4.3 0.00 0.00 0.00 75 1014.9
20260507232505 52 286 0.0 1.7 0.00 0.00 0.00 75 1014.6
20260507232005 52 231 1.7 7.0 0.00 0.00 0.00 75 1014.9
20260507231505 52 212 4.3 7.0 0.00 0.00 0.00 75 1015.2
20260507231006 52 215 2.6 4.3 0.00 0.00 0.00 74 1014.9
20260507230505 52 183 0.9 1.7 0.00 0.00 0.00 75 1014.9
20260507225504 52 193 0.9 7.0 0.00 0.00 0.00 74 1014.9
20260507225005 52 214 5.2 7.0 0.00 0.00 0.00 75 1014.9
20260507224505 52 235 1.7 1.7 0.00 0.00 0.00 75 1014.9
20260507224005 52 210 0.9 1.7 0.00 0.00 0.00 75 1014.9
20260507223006 52 277 0.0 4.3 0.00 0.00 0.00 75 1014.9
20260507222505 52 147 0.9 4.3 0.00 0.00 0.00 75 1014.9
20260507222005 52 191 0.0 1.7 0.00 0.00 0.00 75 1014.9
20260507221506 52 203 2.6 7.0 0.00 0.00 0.00 75 1014.9
20260507221005 52 208 0.9 7.0 0.00 0.00 0.00 75 1015.2
20260507220505 52 240 0.0 1.7 0.00 0.00 0.00 75 1015.0
20260507220005 52 289 1.7 1.7 0.00 0.00 0.00 75 1014.9
20260507215505 52 329 1.7 4.3 0.00 0.00 0.00 75 1014.9
20260507215005 52 30 1.7 4.3 0.00 0.00 0.00 75 1014.9
20260507214505 52 309 1.7 4.3 0.00 0.00 0.00 75 1014.9
20260507214005 52 80 1.7 4.3 0.00 0.00 0.00 75 1015.2
20260507213005 52 21 0.9 1.7 0.00 0.00 0.00 76 1014.9
20260507212505 52 205 0.0 1.7 0.00 0.00 0.00 76 1014.9
20260507212005 52 280 0.0 0.0 0.00 0.00 0.00 76 1014.9
20260507211505 52 308 0.0 1.7 0.00 0.00 0.00 76 1015.2
20260507211005 52 93 0.0 1.7 0.00 0.00 0.00 76 1014.9
20260507210505 52 68 0.9 1.7 0.00 0.00 0.00 76 1014.9
20260507210005 52 312 0.0 0.0 0.00 0.00 0.00 76 1014.9
20260507205006 52 239 0.9 1.7 0.00 0.00 0.00 76 1014.9
20260507204505 52 62 0.0 1.7 0.00 0.00 0.00 75 1014.9
20260507204005 52 254 0.0 1.7 0.00 0.00 0.00 75 1014.9
20260507203006 53 165 0.9 1.7 0.00 0.00 0.00 74 1014.9
20260507201005 53 109 0.9 1.7 0.00 0.00 0.00 71 1014.6
20260507195506 53 9 0.0 0.0 0.00 0.00 0.00 70 1014.6
20260507194505 53 102 0.0 0.0 0.00 0.00 0.00 71 1014.6
20260507194006 53 57 0.0 1.7 0.00 0.00 0.00 71 1014.6
20260507193506 53 116 0.0 1.7 0.00 0.00 0.00 72 1014.6
20260507193005 53 96 0.0 0.0 0.00 0.00 0.00 72 1014.6
20260507192505 53 355 0.0 0.0 0.00 0.00 0.00 72 1014.6
20260507192005 54 31 0.0 0.0 0.00 0.00 0.00 71 1014.2
20260507191505 54 172 0.0 0.0 0.00 0.00 0.00 71 1014.2
20260507191005 54 242 0.0 0.0 0.00 0.00 0.00 71 1014.2
20260507190505 54 282 0.0 0.0 0.00 0.00 0.00 71 1014.2
20260507190006 54 25 0.9 1.7 0.00 0.00 0.00 71 1014.2
20260507185505 54 147 0.0 1.7 0.00 0.00 0.00 70 1014.2
20260507185005 54 228 1.7 7.0 0.00 0.00 0.00 70 1014.4
20260507184505 54 245 1.7 7.0 0.00 0.00 0.00 70 1014.5
20260507184006 54 240 0.0 1.7 0.00 0.00 0.00 71 1014.2
20260507183505 54 307 0.0 1.7 0.00 0.00 0.00 70 1014.2
20260507183005 55 261 0.0 1.7 0.00 0.00 0.00 70 1014.2
20260507182506 55 276 0.0 1.7 0.00 0.00 0.00 70 1014.2
20260507182005 55 316 0.0 1.7 0.00 0.00 0.00 70 1014.2
20260507181505 55 314 0.0 1.7 0.00 0.00 0.00 70 1014.6
20260507181005 54 131 0.9 4.3 0.00 0.00 0.00 70 1014.2
20260507180505 54 220 1.7 4.3 0.00 0.00 0.00 70 1014.2
20260507180007 54 105 0.0 4.3 0.00 0.00 0.00 70 1014.2
20260507175005 54 47 0.9 1.7 0.00 0.00 0.00 70 1014.2
20260507174505 54 337 0.0 0.0 0.00 0.00 0.00 71 1014.2
20260507174005 54 215 0.0 0.0 0.00 0.00 0.00 72 1014.2
20260507173506 54 213 0.0 8.7 0.00 0.00 0.00 71 1014.6
20260507173005 54 229 4.3 8.7 0.00 0.00 0.00 71 1014.6
20260507172505 54 248 0.9 4.3 0.00 0.00 0.00 71 1014.2
20260507172005 54 246 1.7 4.3 0.00 0.00 0.00 70 1014.6
20260507171505 54 279 0.0 1.7 0.00 0.00 0.00 70 1014.6
20260507171005 54 253 0.9 8.7 0.00 0.00 0.00 70 1014.6
20260507170505 54 188 5.2 8.7 0.00 0.00 0.00 70 1014.6
20260507170006 54 193 0.9 7.0 0.00 0.00 0.00 70 1014.6
20260507165505 53 280 5.2 7.0 0.00 0.00 0.00 70 1014.6
20260507165005 53 242 2.6 4.3 0.00 0.00 0.00 70 1014.6
20260507164504 53 222 1.7 4.3 0.00 0.00 0.00 71 1014.6
20260507164005 53 175 1.7 4.3 0.00 0.00 0.00 71 1014.6
20260507163505 53 136 0.0 4.3 0.00 0.00 0.00 71 1014.9
20260507163005 53 187 1.7 7.0 0.00 0.00 0.00 71 1014.6
20260507162504 53 287 1.7 7.0 0.00 0.00 0.00 71 1014.9
20260507161006 53 183 2.6 4.3 0.00 0.00 0.00 72 1014.9
20260507160506 53 207 2.6 7.0 0.00 0.00 0.00 72 1014.6
20260507160005 53 220 5.2 8.7 0.00 0.00 0.00 72 1014.6
20260507155504 53 209 4.3 8.7 0.00 0.00 0.00 72 1014.6
20260507155005 53 185 3.5 7.0 0.00 0.00 0.00 72 1014.6
20260507154506 53 165 0.9 4.3 0.00 0.00 0.00 72 1014.7
20260507154006 53 331 2.6 8.7 0.00 0.00 0.00 71 1014.9
20260507153505 53 184 2.6 8.7 0.00 0.00 0.00 71 1014.9
20260507153005 53 241 1.7 4.3 0.00 0.00 0.00 71 1014.6
20260507152006 54 160 4.3 8.7 0.00 0.00 0.00 71 1014.6
20260507151504 54 280 5.2 8.7 0.00 0.00 0.00 71 1014.6
20260507151005 54 217 4.3 7.0 0.00 0.00 0.00 70 1014.6
20260507150506 54 254 1.7 4.3 0.00 0.00 0.00 71 1014.9
20260507150005 54 278 1.7 4.3 0.00 0.00 0.00 70 1014.6
20260507145505 55 354 2.6 8.7 0.00 0.00 0.00 70 1014.6
20260507145007 55 182 4.3 8.7 0.00 0.00 0.00 70 1014.9
20260507144505 55 290 2.6 8.7 0.00 0.00 0.00 70 1014.6
20260507144006 55 255 5.2 8.7 0.00 0.00 0.00 70 1014.9
20260507143505 56 205 1.7 8.7 0.00 0.00 0.00 69 1014.6